Snowfall_Accumulation
0.5 0.5 0.5 0.4 0.3 0.5 0.6 0.8 1.8 1.7 0.4 0.2 0.3 0.1 0.1 0.1 0.1 0.2 0.2 0.1 0.0 0.1 0.1 0.2 0.2 0.2 0.3 0.2 0.3 0.3 0.3 0.2 0.2 0.1 0.1 0.0 0.0 0.1
0.6 0.8 0.6 0.6 0.4 0.5 0.6 0.7 1.2 1.9 1.5 0.3 0.2 0.2 0.1 0.1 0.1 0.1 0.1 0.2 0.2 0.3 0.1 0.2 0.2 0.3 0.3 0.4 0.4 0.3 0.3 0.3 0.3 0.3 0.2 0.2 0.1 0.1
0.7 0.8 0.9 0.7 0.8 0.6 0.6 0.7 0.9 1.4 1.9 0.7 0.3 0.2 0.2 0.3 0.2 0.0 0.0 0.1 0.2 0.1 0.2 0.2 0.3 0.4 0.5 0.5 0.5 0.5 0.5 0.4 0.4 0.4 0.4 0.3 0.3 0.2
1.2 0.9 0.9 0.9 1.1 1.0 0.9 0.9 0.9 1.0 1.7 1.6 0.7 0.7 0.7 0.4 0.4 0.2 0.2 0.2 0.1 0.1 0.2 0.2 0.3 0.5 0.6 0.7 0.7 0.7 0.6 0.6 0.6 0.5 0.5 0.4 0.4 0.4
1.3 1.3 1.2 1.1 1.3 1.5 1.1 1.3 1.1 1.1 1.5 2.1 1.6 1.1 1.0 0.8 0.7 0.7 0.5 0.3 0.1 0.1 0.1 0.2 0.3 0.5 0.8 0.8 0.7 0.7 0.8 0.7 0.7 0.7 0.7 0.7 0.6 0.5
1.3 1.3 1.3 1.6 1.6 1.6 1.8 1.8 1.7 2.2 2.4 2.6 2.5 2.2 1.8 1.2 1.2 1.3 1.2 1.0 0.6 0.4 0.4 0.2 0.5 0.5 0.5 0.3 0.4 0.5 0.7 0.9 1.1 1.1 1.2 1.1 1.0 0.9
1.7 1.7 1.8 1.7 1.7 2.1 2.4 3.0 3.3 3.9 4.2 4.8 4.5 3.4 2.0 1.6 1.4 1.2 1.9 1.8 1.4 0.7 0.9 0.6 0.9 0.8 0.7 0.3 0.4 0.3 0.8 1.1 1.2 1.3 1.5 1.6 1.4 1.3
2.4 2.2 2.2 2.3 2.2 2.1 2.0 2.4 3.8 5.8 6.9 7.1 5.4 3.6 2.0 1.4 1.5 1.8 2.7 3.5 2.8 1.0 1.4 0.9 0.8 1.1 1.1 0.6 0.6 0.7 1.0 1.2 1.4 1.6 1.8 1.8 1.8 1.6
2.8 3.1 3.1 2.6 2.5 2.4 2.3 2.3 2.7 3.2 4.3 5.0 5.1 3.1 2.0 1.9 2.9 4.1 4.0 4.4 3.5 1.8 2.0 2.4 1.3 1.3 1.3 1.0 0.9 0.9 0.7 1.0 1.4 1.8 2.0 2.2 2.0 1.8
3.3 2.8 2.7 2.4 2.4 3.1 3.5 4.1 3.0 2.3 1.7 2.1 2.6 2.3 2.2 2.1 3.5 5.2 5.2 4.7 2.7 1.5 1.6 3.3 2.0 1.7 1.7 1.2 1.1 1.0 1.2 1.3 1.8 2.2 2.3 2.4 2.2 2.4
2.6 2.3 2.3 2.4 2.5 3.8 5.4 5.8 3.4 2.0 1.4 1.7 2.2 2.6 2.5 2.9 3.4 6.1 7.3 7.5 6.6 2.9 1.7 3.4 2.7 2.7 2.1 2.1 1.2 1.2 1.4 1.8 1.5 1.6 1.9 2.0 2.1 2.4
2.5 1.9 1.9 2.5 3.4 4.9 6.0 6.2 5.4 3.4 3.1 2.1 1.8 1.7 2.1 1.9 2.2 4.2 6.8 10.6 9.8 6.7 2.4 3.7 4.1 4.9 6.6 3.2 1.9 1.8 1.7 1.4 1.9 1.9 1.6 1.7 2.2 2.9
3.4 2.7 1.9 2.9 4.3 5.3 5.6 5.7 5.6 5.6 5.1 4.4 3.6 3.2 2.9 2.7 2.3 2.4 4.2 8.7 12.5 9.5 3.9 7.2 9.3 7.5 10.4 6.7 3.7 2.5 2.5 2.5 2.0 2.1 2.3 2.5 2.9 4.6
4.9 3.6 3.4 4.1 4.9 4.8 4.9 4.7 5.4 6.1 6.6 6.2 5.3 4.7 4.0 4.2 3.8 3.4 3.9 4.5 6.1 7.0 4.9 8.4 15.0 11.6 13.9 11.8 6.9 5.3 4.5 3.8 3.8 4.6 4.2 4.1 4.8 4.8
5.0 4.4 4.8 5.1 5.1 4.7 4.2 4.5 4.9 6.1 6.9 7.2 6.5 5.1 4.5 4.5 4.5 4.7 4.5 4.4 4.7 4.8 4.7 5.7 10.3 11.4 14.7 15.3 10.0 6.2 6.2 5.8 4.9 6.2 5.8 5.8 5.8 6.0
5.4 4.7 4.4 4.3 4.5 4.5 4.1 4.8 5.1 5.8 6.8 7.4 7.1 6.2 5.5 5.9 6.3 6.1 6.8 6.6 7.7 7.1 5.8 5.7 7.0 11.0 13.9 11.0 11.0 10.3 7.2 8.4 7.6 7.7 8.0 7.7 6.7 6.6
7.2 6.3 5.3 4.8 5.0 5.3 5.3 5.0 5.5 5.7 7.4 7.2 8.0 8.4 7.6 7.5 7.4 7.4 9.1 9.8 10.4 8.1 7.4 6.6 6.6 7.8 9.7 11.6 13.2 9.9 8.3 8.4 9.3 10.6 12.1 11.8 7.9 5.9
8.1 8.0 6.0 5.3 5.7 5.7 6.0 6.6 6.7 7.3 7.7 8.5 9.2 9.6 10.0 9.8 9.4 8.7 9.8 11.2 11.2 9.1 8.8 8.3 9.7 11.4 11.7 10.4 9.4 10.9 10.9 10.9 11.1 11.8 13.5 15.8 12.7 7.1
8.5 7.4 6.2 6.0 6.3 6.4 6.7 7.2 7.8 7.5 8.3 9.8 10.7 11.4 12.2 11.8 10.9 10.7 10.8 11.1 10.6 9.8 9.2 9.7 12.6 17.7 18.4 12.9 9.0 9.2 13.3 14.1 12.8 13.0 13.8 16.3 18.2 11.5
7.1 7.2 7.2 6.9 6.9 7.1 7.5 8.0 8.0 8.2 9.3 9.8 10.7 12.2 13.4 14.3 13.3 12.0 11.0 11.5 11.9 10.9 10.0 9.3 11.3 16.4 21.9 18.6 14.6 11.2 10.2 15.6 17.9 18.2 15.6 13.1 10.9 7.6
7.0 7.2 7.8 8.1 8.4 8.5 8.6 8.8 9.4 9.8 10.0 11.2 11.7 12.6 14.1 15.9 15.2 13.2 12.7 12.3 13.2 13.3 12.4 9.8 9.1 11.0 16.3 19.8 17.9 12.7 12.0 10.7 13.7 20.6 20.7 19.7 16.6 13.9
6.9 7.4 7.6 8.1 8.6 9.1 9.7 9.9 10.1 10.1 10.6 11.7 12.3 12.9 13.5 15.6 16.1 14.7 14.4 14.4 13.5 12.9 12.3 10.5 10.4 12.3 15.7 19.2 15.8 11.2 11.2 11.0 10.7 10.4 13.1 18.1 28.2 29.7
8.0 8.0 7.8 8.3 8.5 9.2 10.1 10.3 10.5 10.3 10.4 12.0 13.3 13.6 14.2 14.9 14.7 15.3 15.4 15.0 15.1 14.3 13.6 13.0 11.6 11.9 12.6 13.2 13.8 12.0 11.0 10.9 11.0 11.9 13.6 12.6 11.1 13.0